[[{"header":{"parameterUnit":"m.s-1","parameterCategory":1,"la1":30.2991,"la2":30.254,"lo1":-89.0895,"lo2":-89.0444,"dy":0.0017,"dx":0.0017,"nx":28,"ny":28,"refTime":"2024-09-30T21:00:00:Z","depth":0,"parameterNumber":2,"parameterNumberName":"U-component_of_WINDS"},"data":[0,0,0,0,0,0,0,0,0,0,0,0,0,0,0,0,0,0,0,0,0,0,0,0,0,0,0,0,0,0,0,0,0,0,0,0,0,0,0,0,0,0,0,0,0,0,0,0,0,0,0,0,0,0,0,0,0,0,-0.3213,-0.3213,0,-0.32,-0.32,-0.32,-0.316,-0.316,-0.3159,-0.3158,-0.3147,-0.3148,-0.3148,0,0,0,0,0,0,0,0,0,0,0,0,0,-0.3204,-0.3205,-0.3213,-0.3213,-0.3213,-0.32,-0.32,-0.32,-0.3161,-0.3159,-0.3158,-0.3157,-0.3147,-0.3148,-0.3148,0,0,0,0,0,0,0,0,0,0,0,0,0,-0.3202,-0.3205,-0.3213,-0.3191,-0.3189,-0.32,-0.32,-0.32,-0.3161,-0.3159,-0.3158,-0.3157,-0.3147,-0.3148,-0.3148,-0.318,0,0,-0.3151,-0.3151,0,0,0,0,0,0,0,0,-0.3202,-0.3202,-0.3195,-0.3193,-0.3191,-0.318,-0.3193,-0.3193,-0.3161,-0.3172,-0.3158,-0.3156,-0.3159,-0.3159,-0.316,-0.3179,-0.3179,-0.3151,-0.3151,-0.3152,-0.3152,0,0,0,0,0,0,0,-0.3202,-0.3202,-0.3208,-0.3195,-0.3192,-0.3183,-0.3181,-0.3193,-0.3173,-0.3171,-0.3168,-0.3167,-0.3158,-0.3159,-0.3159,-0.3179,-0.3151,-0.3152,-0.3152,-0.3152,-0.3222,-0.3223,0,0,0,0,0,0,-0.3205,-0.3203,-0.3208,-0.3207,-0.3193,-0.3184,-0.3182,-0.3185,-0.3173,-0.317,-0.3168,-0.3165,-0.3158,-0.3158,-0.3159,-0.3194,-0.3152,-0.3152,-0.3153,-0.3221,-0.3222,-0.3224,0,0,0,0,0,0,-0.3205,-0.3206,-0.3209,-0.3204,-0.3204,-0.3185,-0.3189,-0.3186,-0.3186,-0.3171,-0.3167,-0.3172,-0.3157,-0.3158,-0.3174,-0.3193,-0.3153,-0.3154,-0.3219,-0.3221,-0.3223,-0.3265,0,0,0,0,0,0,-0.3205,-0.3206,-0.3218,-0.3205,-0.3204,-0.3225,-0.3191,-0.3186,-0.3188,-0.3184,-0.3174,-0.3171,-0.3156,-0.3173,-0.3175,-0.3193,-0.3154,-0.3217,-0.322,-0.3222,-0.3262,-0.3269,-0.3274,0,0,0,0,0,-0.3205,-0.3231,-0.3219,-0.3219,-0.3218,-0.3226,-0.3226,-0.3207,-0.3189,-0.3201,-0.3191,-0.3172,-0.319,-0.3175,-0.3177,-0.3196,-0.3216,-0.3219,-0.3222,-0.326,-0.3267,-0.3274,0,0,0,0,0,0,-0.3248,-0.3229,-0.3215,-0.3238,-0.3233,-0.3219,-0.3233,-0.3216,-0.3218,-0.3214,-0.3192,-0.319,-0.321,-0.3204,-0.3188,-0.3225,-0.32,-0.3204,-0.3228,-0.3235,-0.3241,-0.3242,-0.3155,0,0,0,0,0,-0.326,-0.3267,-0.325,-0.3272,-0.327,-0.3252,-0.3255,-0.3241,-0.3236,-0.3234,-0.3225,-0.3222,-0.3226,-0.323,-0.3234,-0.3261,-0.3258,-0.3275,-0.328,-0.3285,-0.3289,-0.3302,-0.3309,-0.3234,-0.3234,-0.3234,0,0,-0.3285,-0.3276,-0.3282,-0.328,-0.3275,-0.3283,-0.3251,-0.3261,-0.3267,-0.3236,-0.3251,-0.3244,-0.3238,-0.326,-0.3269,-0.3256,-0.3309,-0.3289,-0.3293,-0.3294,-0.3306,-0.3313,-0.3319,-0.3236,-0.3235,-0.3235,0,0,-0.3335,-0.3329,-0.3346,-0.3341,-0.3333,-0.3321,-0.3325,-0.3313,-0.3306,-0.3321,-0.3297,-0.3304,-0.3313,-0.331,-0.331,-0.3356,-0.3339,-0.3358,-0.339,-0.3402,-0.3408,-0.3413,-0.343,-0.3436,-0.3362,-0.3362,-0.3362,0,-0.3368,-0.3379,-0.3357,-0.3368,-0.3368,-0.3338,-0.3355,-0.3352,-0.3347,-0.3347,-0.3333,-0.3343,-0.3337,-0.3357,-0.3368,-0.3369,-0.3373,-0.336,-0.3409,-0.3414,-0.3418,-0.3434,-0.344,-0.3364,-0.3364,-0.3364,-0.3363,0,-0.3419,-0.3427,-0.3441,-0.3435,-0.3437,-0.3451,-0.3431,-0.3435,-0.3421,-0.341,-0.3424,-0.3416,-0.3417,-0.3421,-0.3407,-0.3439,-0.3431,-0.3413,-0.3387,-0.3428,-0.3442,-0.3448,-0.3368,-0.3367,-0.3366,-0.3366,0,0,-0.3498,-0.3478,-0.3484,-0.348,-0.3469,-0.3474,-0.3487,-0.3487,-0.3491,-0.3487,-0.3497,-0.3505,-0.3488,-0.3487,-0.3473,-0.3484,-0.3521,-0.3464,-0.3464,-0.3475,-0.3554,-0.3568,-0.3575,-0.3509,-0.351,-0.3511,-0.3555,0,-0.3545,-0.3565,-0.3545,-0.3569,-0.3575,-0.3546,-0.3557,-0.3551,-0.3541,-0.3545,-0.3534,-0.3539,-0.3517,-0.3516,-0.3526,-0.3515,-0.3537,-0.3511,-0.3518,-0.3519,-0.3521,-0.3583,-0.3598,-0.364,-0.356,-0.3561,-0.3562,0,-0.3603,-0.3601,-0.3626,-0.3611,-0.3613,-0.3623,-0.3621,-0.3625,-0.3618,-0.361,-0.3608,-0.359,-0.3601,-0.3575,-0.359,-0.3573,-0.3575,-0.357,-0.3571,-0.3571,-0.3543,-0.3585,-0.3653,-0.3659,-0.357,-0.357,-0.3569,0,-0.3658,-0.3662,-0.3676,-0.3674,-0.3658,-0.3665,-0.3659,-0.365,-0.3651,-0.3649,-0.3649,-0.3649,-0.3649,-0.3649,-0.3631,-0.3615,-0.3648,-0.3622,-0.3642,-0.3642,-0.3651,-0.3651,-0.372,-0.3652,-0.3652,-0.3652,-0.3651,0,-0.3713,-0.3729,-0.37,-0.371,-0.3726,-0.3703,-0.372,-0.3711,-0.3703,-0.371,-0.3685,-0.3692,-0.3668,-0.3672,-0.3658,-0.3672,-0.3672,-0.3666,-0.3662,-0.3668,-0.3669,-0.3669,-0.3666,-0.3653,-0.3653,-0.3652,-0.3652,0,-0.3778,-0.3759,-0.3773,-0.3756,-0.3752,-0.3765,-0.375,-0.3758,-0.3745,-0.3754,-0.3755,-0.3735,-0.3739,-0.372,-0.3722,-0.3712,-0.3733,-0.3724,-0.3736,-0.3733,-0.3754,-0.3752,-0.3826,-0.3835,-0.3761,-0.3762,-0.3762,0,-0.3815,-0.3826,-0.3809,-0.3812,-0.3806,-0.3811,-0.3811,-0.3788,-0.3789,-0.378,-0.3789,-0.379,-0.379,-0.3798,-0.3784,-0.3784,-0.3775,-0.3801,-0.3775,-0.378,-0.3775,-0.3774,-0.3775,-0.3806,-0.3807,-0.3808,-0.3809,0,-0.3882,-0.3871,-0.3872,-0.387,-0.387,-0.3867,-0.3863,-0.3866,-0.3841,-0.3844,-0.3847,-0.3847,-0.3846,-0.3848,-0.3845,-0.3838,-0.382,-0.3817,-0.3821,-0.3828,-0.3834,-0.3831,-0.375,-0.3815,-0.3815,-0.3814,-0.3814,-0.3814,-0.3934,-0.3942,-0.3931,-0.3933,-0.3926,-0.3922,-0.3928,-0.3915,-0.3917,-0.3915,-0.3901,-0.3906,-0.3897,-0.3891,-0.3886,-0.389,-0.3877,-0.3884,-0.3886,-0.3888,-0.3892,-0.3833,-0.3889,-0.3889,-0.3889,-0.3889,-0.3888,0,-0.3999,-0.399,-0.3992,-0.3985,-0.3986,-0.3967,-0.3961,-0.3963,-0.3967,-0.396,-0.396,-0.3963,-0.3964,-0.3949,-0.3948,-0.3954,-0.3945,-0.3954,-0.3954,-0.3953,-0.3903,-0.3899,-0.3961,-0.3961,-0.3961,-0.3961,-0.3961,-0.3961,-0.4034,-0.4046,-0.4034,-0.4043,-0.4034,-0.4039,-0.4036,-0.4032,-0.4026,-0.403,-0.403,-0.402,-0.401,-0.4008,-0.4007,-0.4003,-0.4004,-0.4016,-0.4009,-0.3963,-0.3956,-0.3949,-0.3945,-0.4017,-0.4017,-0.4058,-0.4058,-0.4059]},{"header":{"parameterUnit":"m.s-1","parameterCategory":1,"la1":30.2991,"la2":30.254,"lo1":-89.0895,"lo2":-89.0444,"dy":0.0017,"dx":0.0017,"nx":28,"ny":28,"refTime":"2024-09-30T21:00:00:Z","depth":0,"parameterNumber":3,"parameterNumberName":"V-component_of_WINDS"},"data":[0,0,0,0,0,0,0,0,0,0,0,0,0,0,0,0,0,0,0,0,0,0,0,0,0,0,0,0,0,0,0,0,0,0,0,0,0,0,0,0,0,0,0,0,0,0,0,0,0,0,0,0,0,0,0,0,0,0,-3.6132,-3.6133,0,-3.6189,-3.619,-3.6191,-3.6159,-3.6158,-3.6156,-3.6155,-3.621,-3.6213,-3.6216,0,0,0,0,0,0,0,0,0,0,0,0,0,-3.5993,-3.5996,-3.6132,-3.6133,-3.6134,-3.6189,-3.619,-3.6191,-3.616,-3.6158,-3.6156,-3.6154,-3.6209,-3.6213,-3.6216,0,0,0,0,0,0,0,0,0,0,0,0,0,-3.6052,-3.5997,-3.6132,-3.6125,-3.6125,-3.6189,-3.619,-3.6191,-3.616,-3.6158,-3.6155,-3.6153,-3.6208,-3.6212,-3.6217,-3.6291,0,0,-3.623,-3.6232,0,0,0,0,0,0,0,0,-3.6049,-3.6058,-3.6125,-3.6125,-3.6126,-3.6165,-3.6162,-3.6224,-3.6161,-3.6147,-3.6155,-3.6152,-3.6197,-3.6202,-3.6218,-3.6293,-3.6296,-3.6231,-3.6233,-3.6235,-3.6236,0,0,0,0,0,0,0,-3.6045,-3.6055,-3.6155,-3.6126,-3.6126,-3.6118,-3.6124,-3.6173,-3.6184,-3.6148,-3.6145,-3.6153,-3.6196,-3.6214,-3.6219,-3.6297,-3.6231,-3.6234,-3.6237,-3.6239,-3.6435,-3.6438,0,0,0,0,0,0,-3.6042,-3.6052,-3.6153,-3.6156,-3.6081,-3.6122,-3.6129,-3.6155,-3.6183,-3.6186,-3.6155,-3.6151,-3.6207,-3.6214,-3.6221,-3.6309,-3.6235,-3.6239,-3.6242,-3.6433,-3.6436,-3.6439,0,0,0,0,0,0,-3.6039,-3.6051,-3.6151,-3.6104,-3.6116,-3.6127,-3.6156,-3.6157,-3.6174,-3.6189,-3.619,-3.617,-3.6206,-3.6215,-3.6274,-3.631,-3.6241,-3.6245,-3.643,-3.6434,-3.6437,-3.6486,0,0,0,0,0,0,-3.6035,-3.605,-3.6079,-3.6105,-3.6118,-3.6204,-3.6159,-3.616,-3.6182,-3.6178,-3.6204,-3.6206,-3.6205,-3.6267,-3.6278,-3.6315,-3.6249,-3.6426,-3.6431,-3.6436,-3.6481,-3.6491,-3.65,0,0,0,0,0,-3.603,-3.609,-3.6081,-3.6093,-3.6155,-3.6206,-3.6214,-3.6211,-3.6185,-3.6214,-3.6223,-3.6205,-3.6305,-3.6274,-3.6286,-3.6324,-3.6424,-3.643,-3.6436,-3.6477,-3.6489,-3.6499,0,0,0,0,0,0,-3.6067,-3.6093,-3.6083,-3.6153,-3.6178,-3.62,-3.6236,-3.6224,-3.6256,-3.6251,-3.6246,-3.6252,-3.6314,-3.6325,-3.629,-3.6397,-3.636,-3.6369,-3.6388,-3.6399,-3.6408,-3.6404,-3.6252,0,0,0,0,0,-3.6084,-3.6124,-3.6144,-3.6204,-3.6217,-3.6225,-3.6247,-3.6243,-3.6268,-3.6278,-3.6292,-3.6316,-3.6352,-3.6377,-3.6411,-3.6483,-3.6488,-3.6516,-3.6525,-3.6532,-3.6539,-3.6578,-3.659,-3.6458,-3.6458,-3.6458,0,0,-3.6118,-3.6137,-3.6163,-3.6212,-3.623,-3.6271,-3.6234,-3.6278,-3.6309,-3.6284,-3.6341,-3.6353,-3.6379,-3.6445,-3.6474,-3.6456,-3.6577,-3.654,-3.6546,-3.6549,-3.6585,-3.6598,-3.6609,-3.6462,-3.6461,-3.646,0,0,-3.6201,-3.622,-3.6272,-3.6291,-3.632,-3.6325,-3.6338,-3.6363,-3.637,-3.6427,-3.641,-3.6445,-3.6508,-3.6528,-3.6546,-3.6637,-3.6622,-3.6649,-3.6696,-3.6734,-3.6744,-3.6754,-3.6786,-3.6797,-3.6656,-3.6656,-3.6656,0,-3.6239,-3.6301,-3.6299,-3.6346,-3.6368,-3.6349,-3.6401,-3.642,-3.6459,-3.6474,-3.6453,-3.6533,-3.6549,-3.6619,-3.6641,-3.6657,-3.667,-3.6645,-3.6743,-3.6752,-3.6761,-3.6791,-3.6803,-3.6659,-3.6659,-3.6658,-3.6658,0,-3.6347,-3.639,-3.6428,-3.6467,-3.6493,-3.6542,-3.6547,-3.6574,-3.6568,-3.6575,-3.6633,-3.6653,-3.6691,-3.6707,-3.6702,-3.6777,-3.6764,-3.6744,-3.6706,-3.6777,-3.6805,-3.6817,-3.6664,-3.6662,-3.6662,-3.6661,0,0,-3.6453,-3.6492,-3.6506,-3.6523,-3.6554,-3.6587,-3.6635,-3.6673,-3.6696,-3.6724,-3.6763,-3.6818,-3.6799,-3.682,-3.6816,-3.6849,-3.692,-3.6824,-3.6825,-3.6841,-3.7003,-3.7017,-3.7031,-3.691,-3.6912,-3.6914,-3.7,0,-3.6538,-3.6623,-3.6623,-3.6701,-3.6741,-3.6724,-3.6766,-3.6789,-3.6797,-3.6831,-3.6839,-3.6878,-3.685,-3.6863,-3.6895,-3.6904,-3.6952,-3.6898,-3.6946,-3.6947,-3.6939,-3.7046,-3.7062,-3.7142,-3.7011,-3.7013,-3.7015,0,-3.6648,-3.668,-3.6762,-3.6788,-3.6804,-3.6842,-3.6877,-3.691,-3.6936,-3.694,-3.6963,-3.6955,-3.7003,-3.6965,-3.703,-3.6994,-3.7013,-3.7021,-3.7024,-3.7028,-3.6985,-3.7051,-3.7168,-3.7179,-3.7032,-3.7031,-3.7029,0,-3.6716,-3.678,-3.6838,-3.6853,-3.6885,-3.6912,-3.6926,-3.695,-3.6973,-3.7003,-3.7018,-3.7054,-3.7073,-3.71,-3.7101,-3.7073,-3.7167,-3.7129,-3.717,-3.717,-3.719,-3.7188,-3.731,-3.7204,-3.7204,-3.7204,-3.7203,0,-3.681,-3.6861,-3.6869,-3.6905,-3.6961,-3.696,-3.7016,-3.7027,-3.7049,-3.7085,-3.7073,-3.7107,-3.7107,-3.7142,-3.7143,-3.7197,-3.7206,-3.7209,-3.7209,-3.721,-3.7209,-3.7222,-3.7216,-3.7207,-3.7206,-3.7206,-3.7205,0,-3.6896,-3.6904,-3.6965,-3.6991,-3.6998,-3.7039,-3.706,-3.7093,-3.71,-3.7147,-3.7157,-3.7168,-3.7209,-3.7213,-3.726,-3.726,-3.7325,-3.7319,-3.7317,-3.7315,-3.7356,-3.7352,-3.7489,-3.7507,-3.739,-3.7391,-3.7392,0,-3.6955,-3.6994,-3.7024,-3.7048,-3.7064,-3.7103,-3.7127,-3.7128,-3.7153,-3.7186,-3.7215,-3.7255,-3.7286,-3.7351,-3.7363,-3.7398,-3.7392,-3.7438,-3.7397,-3.7397,-3.7392,-3.7389,-3.7393,-3.7445,-3.7447,-3.7448,-3.7449,0,-3.7058,-3.7061,-3.7096,-3.7133,-3.7163,-3.7191,-3.7219,-3.7239,-3.7243,-3.7272,-3.7314,-3.7338,-3.7387,-3.7426,-3.7461,-3.7474,-3.7462,-3.7462,-3.7473,-3.7474,-3.7471,-3.7472,-3.7337,-3.7458,-3.7457,-3.7456,-3.7456,-3.7456,-3.7132,-3.7166,-3.7192,-3.7232,-3.7253,-3.7279,-3.7312,-3.7323,-3.7359,-3.7399,-3.7397,-3.7443,-3.7468,-3.7514,-3.753,-3.7565,-3.755,-3.7566,-3.757,-3.7574,-3.7578,-3.7466,-3.7572,-3.7572,-3.7571,-3.7571,-3.7571,0,-3.7234,-3.7251,-3.7288,-3.7327,-3.7358,-3.7345,-3.7375,-3.7401,-3.7442,-3.7467,-3.7499,-3.7547,-3.7585,-3.76,-3.7637,-3.7662,-3.7657,-3.7672,-3.7669,-3.7672,-3.759,-3.7576,-3.7675,-3.7675,-3.7675,-3.7675,-3.7675,-3.7675,-3.7291,-3.7347,-3.7353,-3.7419,-3.7435,-3.7481,-3.7499,-3.7522,-3.7542,-3.7596,-3.7628,-3.7638,-3.7659,-3.7697,-3.7731,-3.7735,-3.7748,-3.7765,-3.7766,-3.7689,-3.7678,-3.7668,-3.7655,-3.7768,-3.7769,-3.7845,-3.7846,-3.7846]}]]